カタログに戻る

STARLINK-34996

運用中通信VLEO
NORAD 65223·PAYLOAD·🇺🇸 United States

打ち上げ Aug 14, 2025 から Cape Canaveral Space Force Station

Loading…

次のパス (今後24時間)

TLE

最新Source: CelesTrak SupGP

元期: Sep 15, 2026, 03:59 UTC

1 65223C 25176AB  26258.16645833  .00073758  00000+0  21787-2 0  2582
2 65223  53.1598 348.9388 0001069  99.2244 206.3390 15.34360353    17

AllMySatでSTARLINK-34996をリアルタイム追跡

Download on the App Store